TimeCST,TemperatureF,Dew PointF,Humidity,Sea Level PressureIn,VisibilityMPH,Wind Direction,Wind SpeedMPH,Gust SpeedMPH,PrecipitationIn,Events,Conditions,WindDirDegrees,DateUTC
12:52 AM,30.0,23.0,75,30.21,-9999.0,North,12.7,-,N/A,,Unknown,360,2013-11-28 06:52:00
1:52 AM,27.0,19.9,75,30.24,-9999.0,North,17.3,23.0,N/A,,Unknown,360,2013-11-28 07:52:00
2:52 AM,26.1,18.0,71,30.27,-9999.0,North,15.0,23.0,N/A,,Unknown,360,2013-11-28 08:52:00
3:52 AM,26.1,18.0,71,30.29,-9999.0,North,15.0,18.4,N/A,,Unknown,350,2013-11-28 09:52:00
4:52 AM,27.0,18.0,69,30.31,-9999.0,North,9.2,19.6,N/A,,Unknown,360,2013-11-28 10:52:00
5:52 AM,27.0,19.0,72,30.34,-9999.0,North,10.4,-,N/A,,Unknown,350,2013-11-28 11:52:00
6:52 AM,28.0,19.0,69,30.36,-9999.0,North,8.1,-,N/A,,Unknown,360,2013-11-28 12:52:00
7:52 AM,28.0,19.0,69,30.38,-9999.0,NNW,8.1,-,N/A,,Unknown,340,2013-11-28 13:52:00
8:52 AM,28.0,18.0,66,30.41,-9999.0,North,9.2,-,N/A,,Unknown,350,2013-11-28 14:52:00
9:52 AM,28.0,19.0,69,30.43,-9999.0,NNE,9.2,-,N/A,,Unknown,30,2013-11-28 15:52:00
10:52 AM,28.0,18.0,66,30.45,-9999.0,ENE,5.8,-,N/A,,Unknown,60,2013-11-28 16:52:00
11:52 AM,28.0,18.0,66,30.45,-9999.0,North,4.6,-,N/A,,Unknown,10,2013-11-28 17:52:00
12:52 PM,28.9,18.0,64,30.45,-9999.0,North,4.6,-,N/A,,Unknown,360,2013-11-28 18:52:00
1:52 PM,28.9,18.0,64,30.43,-9999.0,Calm,Calm,-,N/A,,Unknown,0,2013-11-28 19:52:00
2:52 PM,28.9,18.0,64,30.43,-9999.0,Calm,Calm,-,N/A,,Unknown,0,2013-11-28 20:52:00
3:52 PM,28.0,18.0,66,30.43,-9999.0,South,4.6,-,N/A,,Unknown,180,2013-11-28 21:52:00
4:52 PM,28.0,18.0,66,30.43,-9999.0,Calm,Calm,-,N/A,,Unknown,0,2013-11-28 22:52:00
5:52 PM,27.0,18.0,69,30.43,-9999.0,SSE,5.8,-,N/A,,Unknown,160,2013-11-28 23:52:00
6:52 PM,27.0,18.0,69,30.43,-9999.0,SE,4.6,-,N/A,,Unknown,130,2013-11-29 00:52:00
7:52 PM,26.1,18.0,71,30.43,-9999.0,SE,8.1,-,N/A,,Unknown,140,2013-11-29 01:52:00
8:52 PM,27.0,18.0,69,30.43,-9999.0,SSE,10.4,-,N/A,,Unknown,150,2013-11-29 02:52:00
9:52 PM,25.0,18.0,75,30.43,-9999.0,SSE,8.1,-,N/A,,Unknown,150,2013-11-29 03:52:00
10:52 PM,21.9,17.1,82,30.42,-9999.0,SSE,8.1,-,N/A,,Unknown,150,2013-11-29 04:52:00
11:52 PM,21.9,17.1,82,30.41,-9999.0,SSE,11.5,-,N/A,,Unknown,150,2013-11-29 05:52:00